COSMOS 2251 DEB, 34307

Orbit data source: Space-Track

COSMOS 2251 DEB, 34307 is space debris in LEO originally from a launch on Wed, 16 Jun 1993 UTC launched from the Plesetsk Missile And Space Complex (PKMTR). The debris from Iridium 33, an American commercial communications satellite, has been tracked extensively since its accidental collision with the defunct Russian satellite Cosmos 2251 in 2009. This event, occurring at high speed in low Earth orbit (LEO), generated thousands of pieces of space debris, significantly increasing the risk of further collisions. The Iridium 33 debris cloud has impacted space traffic management and orbital debris mitigation strategies, making it a subject of ongoing study in space situational awareness.

Loading next visibility...
Identifier
34307, 1993-036ND
Orbit
LEO
Country
Flag of CISCIS
Related business
Manufacturer
Unknown
Mission
Spacecraft
Bus & Motor
Unknown
Mass
Unknown
Launch date (UTC)
1993-06-16 (33 years ago)
Launch vehicle
Unknown
Launch site
Plesetsk Missile And Space Complex (PKMTR)
Object type
Payload
Rocket body
Debris
Shape & HBR
Unknown shape, 0.1 m
Radar Cross Section
Small (<0.1 m²)

Expand to show TLE details & history
Last TLE update: 1 day ago

TLE from 1 day ago
0 COSMOS 2251 DEB
1 34307U 93036ND  26106.03155507  .00000483  00000-0  45217-3 0  9996
2 34307  74.0505 113.6349 0393418 277.3387 108.1739 13.54536039845456
Epoch: 2026-04-16T00:45Z
TLE epoch observation values (Epoch: 2026-04-16T00:45:26.358Z)
Latitude
28.52384°
Longitude
-93.0198°
Altitude
1,160.174 km
Speed
7.226 km/s
True Right ascension
08h 10m 05s
True Declination
28° 23' 15"
Sunlit
Object was in daylight at epoch
Visualization orbit readout
Latitude
Unknown
Longitude
Unknown
Altitude
Unknown
Speed
Unknown
Apparent Right ascension
Unknown
Apparent Declination
Unknown
Sunlit
N/A
Visualization observer readout
Local Sidereal Time
10:01:33
Azimuth
Unknown
Elevation
Unknown
Doppler factor
Unknown
Orbital elements
Apogee altitude
1,345.692 km
Perigee altitude
760.958 km
Semi-major axis
7,431.462 km
Eccentricity
0.03934
Inclination
74.0505°
RAAN
113.6349°
Arg. of periapsis
277.3387°
True anomaly
112.3887°
Mean anomaly
108.1739°
Eccentric anomaly
110.28817°
Mean motion
3.38791 °/min
Orbital period
106.26 mins
BSTAR
0.00045217
Loading maneuver chart data...
Computing Atmospheric mass density...

Documentation

Showing up to 5 results
|